< < Back
Terminal Aerodrome Forecast


Current Version              Previous Versions:   1  2  3  4  5  6  7  8  9  

Terminal Aerodrome Forecast

631
FTUS42 KTAE 201100
TAFDHN
TAF
KDHN 201120Z 2012/2112 04009KT P6SM SCT010 OVC020
     FM202000 04009G15KT P6SM SCT025 SCT250
     FM210000 05005KT P6SM SKC=

Latest METAR

654
SAUS70 KWBC 201800 RRG
MTRDHN
METAR KDHN 201753Z 04008KT 10SM OVC014 14/11 A3022 RMK AO2 SLP233
T01390106 10139 20117 58006


USA.gov is the U.S. government's official web portal to all federal, state and local government web resources and services.